Regional Weather Roundup
Issued by NWS

Home | Current Version | Previous Version | Text Only | Print | Product List | Glossary On
Versions: 1 2 3 4 5 6 7 8 9 10 11 12 13 14 15 16 17 18 19 20 21 22 23 24 25 26 27 28 29 30 31 32 33 34 35 36 37 38 39 40 41 42 43 44 45 46 47 48 49 50
000
ASUS43 KLSX 041810
RWRMO

WEATHER SUMMARY FOR MISSOURI
NATIONAL WEATHER SERVICE SPRINGFIELD MO
1200 PM CST SUN DEC 04 2016

NOTE: "FAIR" INDICATES FEW OR NO CLOUDS BELOW 12,000 FEET WITH NO
       SIGNIFICANT WEATHER AND/OR OBSTRUCTIONS TO VISIBILITY.
       CURRENT SKY AND/OR WEATHER CONDITIONS ARE NOT AVAILABLE FOR
       CHILLICOTHE AND FARMINGTON.

MOZ001>031-035>038-043-044-053-054-041900-
...NORTHERN AND WESTERN MISSOURI...

CITY           SKY/WX    TMP DP  RH WIND       PRES   REMARKS
KANSAS CTY INT CLOUDY    41  36  82 W8        29.99F
6HR MIN TEMP:  36; 6HR MAX TEMP:  41; 6HR PCP:  0.13;

KANSAS C DTWN  CLOUDY    43  38  82 NW8       30.00F
6HR MIN TEMP:  38; 6HR MAX TEMP:  43; 6HR PCP:  0.08;

LEE`S SUMMIT   CLOUDY    41  38  89 W13       29.99F
6HR MIN TEMP:  37; 6HR MAX TEMP:  41; 6HR PCP: TRACE;

ST JOSEPH      CLOUDY    39  36  89 NW10      30.00F
6HR MIN TEMP:  36; 6HR MAX TEMP:  39; 6HR PCP:  0.11;

CHILLICOTHE      N/A     36  35  96 VRB3      29.99F
6HR MIN TEMP:  33; 6HR MAX TEMP:  37; 6HR PCP:  0.26;

KIRKSVILLE     CLOUDY    34  33  96 SW5       29.97F WCI  30
6HR MIN TEMP:  33; 6HR MAX TEMP:  34; 6HR PCP:  0.36;


$$
MOZ066>068-077>081-088>096-101>105-041900-
...SOUTHWEST MISSOURI...

CITY           SKY/WX    TMP DP  RH WIND       PRES   REMARKS
SPRINGFIELD    CLOUDY    43  39  86 NW10      29.99F
6HR MIN TEMP:  38; 6HR MAX TEMP:  43; 6HR PCP:  0.12;

JOPLIN         PTSUNNY   45  41  86 NW10      30.02F
6HR MIN TEMP:  40; 6HR MAX TEMP:  45; 6HR PCP:  0.06;

BRANSON        CLOUDY    41  41 100 W7        30.01F

$$
MOZ032>034-039>042-045>050-055>058-069>072-041900-
...CENTRAL MISSOURI...

CITY           SKY/WX    TMP DP  RH WIND       PRES   REMARKS
COLUMBIA       CLOUDY    34  33  96 SW7       29.98F FOG     WCI  28
6HR MIN TEMP:  33; 6HR MAX TEMP:  37; 6HR PCP:  0.31;

JEFFERSON CITY CLOUDY    37  35  92 VRB5      30.01S
6HR MIN TEMP:  35; 6HR MAX TEMP:  38; 6HR PCP:  0.21;

ROLLA          MIX PCPN  37  36  96 W9        29.97S
6HR MIN TEMP:  35; 6HR MAX TEMP:  37; 6HR PCP:  0.18;

SEDALIA        CLOUDY    41  39  93 W7        29.99F
6HR MIN TEMP:  34; 6HR MAX TEMP:  41; 6HR PCP:  0.23;

WHITEMAN AFB   CLOUDY    41  41 100 W13       29.97F
WARRENSBURG    CLOUDY    39  37  93 W9        29.99F
OSAGE BEACH    CLOUDY    41  37  87 W10G17    29.99F

$$
MOZ051-052-059>065-041900-
...EAST CENTRAL MISSOURI...

CITY           SKY/WX    TMP DP  RH WIND       PRES   REMARKS
ST LOUIS INTL  LGT RAIN  40  35  83 W9        29.98F
6HR MIN TEMP:  38; 6HR MAX TEMP:  40; 6HR PCP:  0.17;

SPIRIT OF STL  LGT RAIN  39  37  92 SW3       29.97F FOG
6HR MIN TEMP:  37; 6HR MAX TEMP:  39; 6HR PCP:  0.18;

ST CHARLES     LGT RAIN  38  37  97 W7        29.98F FOG
6HR MIN TEMP:  37; 6HR MAX TEMP:  38; 6HR PCP:  0.21;


$$
MOZ072>076-082>087-097>100-106>115-041900-
...SOUTH CENTRAL AND SOUTHEAST MISSOURI...

CITY           SKY/WX    TMP DP  RH WIND       PRES   REMARKS
CAPE GIRARDEAU CLOUDY    43  41  93 S6        29.97F FOG
6HR MIN TEMP:  39; 6HR MAX TEMP:  43; 6HR PCP:  0.06;

FARMINGTON     LGT RAIN  39  38  96 SW7       29.96F
6HR MIN TEMP:  36; 6HR MAX TEMP:  39; 6HR PCP:  0.09;

POPLAR BLUFF   CLOUDY    42  41  96 SW3       29.98F FOG
6HR MIN TEMP:  39; 6HR MAX TEMP:  42; 6HR PCP:  0.02;

WEST PLAINS    CLOUDY    40  38  93 W7        29.98F
6HR MIN TEMP:  37; 6HR MAX TEMP:  40; 6HR PCP:  0.06;


$$



USA.gov is the U.S. government's official web portal to all federal, state and local government web resources and services.